Terminal Aerodrome Forecast
Issued by NWS Upton, NY

Home | Current Version | Previous Version | Text Only | Print | Product List | Glossary On
Versions: 1 2 3 4 5 6 7 8 9 10 11 12 13 14 15 16 17 18 19 20 21 22 23 24 25 26
000
FTUS41 KOKX 222300
TAFLGA
TAF
KLGA 222340Z 2300/2324 05009KT 6SM BR SCT008 OVC015
      TEMPO 2302/2304 5SM -RA BR BKN008
     FM230400 07011KT 3SM -RA BR OVC005
     FM231300 06010KT 3SM -RA BR BKN006 OVC009
     FM231800 02006KT 2SM -RADZ BR OVC005=

USA.gov is the U.S. government's official web portal to all federal, state and local government web resources and services.